ZGGG

Guangzhou Baiyun International Airport

Airport
ICAO code
ZGGG
IATA Code
CAN
Summary
ICAO Region
APAC
ICAO Territory
Location

Guangzhou, Guangdong

Serving
Guangzhou
Elevation
50 ft
Coordinates
23° 23' 33" N , 113° 17' 56" E
KCC
Metar
ZGGG 242100Z VRB01MPS 9999 FEW050 28/27 Q1007 NOSIG

Guangzhou Baiyun International Airport is the main airport of Guangzhou, the capital of the province of Guangdong, People's Republic of China.

Climatology

Within the Köppen Climate Classification System, ((Koppen climate classification Cwa)) this climate type generally has warm and humid summers with mild winters. Its extent is from 30 to 50° of latitude mainly on the eastern and western borders of most continents. During the winter, the main weather feature is the mid-latitude cyclone. Convective thunderstorms provide precipitation in the summer months.

Airport map

Aerial View

SKYbrary Partners:

Safety knowledge contributed by: